TimeCST,TemperatureF,Dew PointF,Humidity,Sea Level PressureIn,VisibilityMPH,Wind Direction,Wind SpeedMPH,Gust SpeedMPH,PrecipitationIn,Events,Conditions,WindDirDegrees,DateUTC
12:15 AM,54.3,50.7,88,30.23,10.0,Calm,Calm,-,N/A,,Clear,0,2013-01-20 06:15:00
12:35 AM,53.2,50.2,89,30.22,10.0,Calm,Calm,-,N/A,,Clear,0,2013-01-20 06:35:00
12:55 AM,52.7,50.0,91,30.21,10.0,Calm,Calm,-,N/A,,Clear,0,2013-01-20 06:55:00
1:15 AM,51.4,48.9,91,30.22,10.0,Calm,Calm,-,N/A,,Clear,0,2013-01-20 07:15:00
1:35 AM,50.5,48.4,92,30.21,10.0,Calm,Calm,-,N/A,,Clear,0,2013-01-20 07:35:00
1:55 AM,50.7,48.6,92,30.20,10.0,Calm,Calm,-,N/A,,Clear,0,2013-01-20 07:55:00
2:15 AM,49.5,46.9,91,30.20,10.0,Calm,Calm,-,N/A,,Clear,0,2013-01-20 08:15:00
2:35 AM,49.6,47.3,92,30.20,10.0,Calm,Calm,-,N/A,,Clear,0,2013-01-20 08:35:00
2:55 AM,50.2,48.2,93,30.19,10.0,Calm,Calm,-,N/A,,Clear,0,2013-01-20 08:55:00
3:15 AM,49.5,47.8,94,30.19,7.0,Calm,Calm,-,N/A,,Clear,0,2013-01-20 09:15:00
3:35 AM,48.4,46.9,95,30.19,10.0,North,3.5,-,N/A,,Clear,10,2013-01-20 09:35:00
3:55 AM,49.5,48.4,96,30.19,5.0,North,3.5,-,N/A,,Clear,10,2013-01-20 09:55:00
4:15 AM,49.6,48.6,96,30.19,5.0,Calm,Calm,-,N/A,,Clear,0,2013-01-20 10:15:00
4:35 AM,49.3,48.2,96,30.19,7.0,Calm,Calm,-,N/A,,Clear,0,2013-01-20 10:35:00
4:55 AM,48.9,47.8,96,30.19,5.0,Calm,Calm,-,N/A,,Clear,0,2013-01-20 10:55:00
5:15 AM,48.4,47.5,97,30.19,4.0,Calm,Calm,-,N/A,,Clear,0,2013-01-20 11:15:00
5:35 AM,48.6,47.7,97,30.19,5.0,Calm,Calm,-,N/A,,Clear,0,2013-01-20 11:35:00
5:55 AM,48.2,47.3,97,30.20,5.0,Calm,Calm,-,N/A,,Clear,0,2013-01-20 11:55:00
6:35 AM,46.4,45.5,97,30.20,7.0,Calm,Calm,-,N/A,,Clear,0,2013-01-20 12:35:00
6:55 AM,46.8,45.7,96,30.21,4.0,Calm,Calm,-,N/A,,Clear,0,2013-01-20 12:55:00
7:15 AM,47.3,46.4,97,30.21,5.0,Calm,Calm,-,N/A,,Clear,0,2013-01-20 13:15:00
7:35 AM,46.6,45.5,96,30.21,7.0,Calm,Calm,-,N/A,,Clear,0,2013-01-20 13:35:00
7:55 AM,46.8,45.5,95,30.22,7.0,Calm,Calm,-,N/A,,Clear,0,2013-01-20 13:55:00
8:15 AM,46.0,44.8,95,30.22,10.0,Calm,Calm,-,N/A,,Clear,0,2013-01-20 14:15:00
8:35 AM,48.2,46.8,95,30.23,5.0,NNW,3.5,-,N/A,,Clear,340,2013-01-20 14:35:00
8:55 AM,50.9,49.6,95,30.24,5.0,Calm,Calm,-,N/A,,Clear,0,2013-01-20 14:55:00
9:15 AM,53.1,51.6,95,30.24,7.0,Calm,Calm,-,N/A,,Clear,0,2013-01-20 15:15:00
9:35 AM,55.6,52.9,91,30.24,10.0,Calm,Calm,-,N/A,,Clear,0,2013-01-20 15:35:00
9:55 AM,60.1,53.8,80,30.24,10.0,Calm,Calm,-,N/A,,Clear,0,2013-01-20 15:55:00
10:15 AM,63.1,54.5,73,30.25,10.0,Calm,Calm,-,N/A,,Clear,0,2013-01-20 16:15:00
10:35 AM,66.2,54.3,65,30.25,10.0,ESE,5.8,-,N/A,,Clear,120,2013-01-20 16:35:00
10:55 AM,68.5,54.7,61,30.25,10.0,SSE,4.6,-,N/A,,Clear,160,2013-01-20 16:55:00
11:15 AM,70.5,55.2,58,30.24,10.0,SSE,3.5,-,N/A,,Clear,160,2013-01-20 17:15:00
11:55 AM,72.1,56.5,58,30.23,10.0,SSE,4.6,-,N/A,,Scattered Clouds,160,2013-01-20 17:55:00
12:35 PM,73.8,55.9,54,30.20,10.0,South,3.5,-,N/A,,Mostly Cloudy,170,2013-01-20 18:35:00
12:55 PM,74.3,55.0,51,30.18,10.0,SE,5.8,-,N/A,,Scattered Clouds,140,2013-01-20 18:55:00
1:15 PM,75.4,54.1,48,30.16,10.0,South,5.8,-,N/A,,Scattered Clouds,180,2013-01-20 19:15:00
1:35 PM,74.1,53.6,49,30.14,10.0,SE,5.8,-,N/A,,Scattered Clouds,140,2013-01-20 19:35:00
1:55 PM,76.5,52.9,44,30.13,10.0,SSW,6.9,-,N/A,,Scattered Clouds,210,2013-01-20 19:55:00
2:15 PM,76.5,52.3,43,30.12,10.0,Calm,Calm,-,N/A,,Mostly Cloudy,0,2013-01-20 20:15:00
2:35 PM,75.4,52.5,45,30.11,10.0,ESE,4.6,-,N/A,,Scattered Clouds,120,2013-01-20 20:35:00
2:55 PM,77.0,52.0,42,30.10,10.0,Calm,Calm,-,N/A,,Mostly Cloudy,0,2013-01-20 20:55:00
3:15 PM,77.4,51.6,41,30.09,10.0,South,9.2,-,N/A,,Mostly Cloudy,170,2013-01-20 21:15:00
3:35 PM,76.8,50.9,40,30.09,10.0,South,5.8,-,N/A,,Scattered Clouds,190,2013-01-20 21:35:00
3:55 PM,76.5,51.1,41,30.09,10.0,ESE,3.5,-,N/A,,Clear,120,2013-01-20 21:55:00
4:15 PM,77.0,51.1,40,30.09,10.0,SE,4.6,-,N/A,,Clear,140,2013-01-20 22:15:00
4:35 PM,77.7,50.5,38,30.08,10.0,South,5.8,-,N/A,,Clear,190,2013-01-20 22:35:00
4:55 PM,77.5,50.2,38,30.08,10.0,ESE,4.6,-,N/A,,Clear,120,2013-01-20 22:55:00
5:15 PM,77.4,53.8,44,30.09,10.0,East,9.2,-,N/A,,Clear,90,2013-01-20 23:15:00
5:35 PM,74.5,55.4,51,30.09,10.0,East,12.7,-,N/A,,Clear,90,2013-01-20 23:35:00
5:55 PM,72.7,55.8,55,30.09,10.0,East,11.5,-,N/A,,Clear,100,2013-01-20 23:55:00
6:15 PM,71.4,55.8,58,30.10,10.0,East,11.5,-,N/A,,Clear,90,2013-01-21 00:15:00
6:35 PM,69.8,55.6,61,30.10,10.0,ESE,6.9,-,N/A,,Clear,110,2013-01-21 00:35:00
6:55 PM,68.4,55.4,63,30.11,10.0,East,6.9,-,N/A,,Clear,100,2013-01-21 00:55:00
7:15 PM,67.3,55.2,65,30.12,10.0,East,6.9,-,N/A,,Clear,100,2013-01-21 01:15:00
7:35 PM,66.2,55.0,67,30.12,10.0,ESE,5.8,-,N/A,,Clear,120,2013-01-21 01:35:00
7:55 PM,65.5,54.9,68,30.12,10.0,ESE,4.6,-,N/A,,Clear,110,2013-01-21 01:55:00
8:15 PM,64.8,54.9,70,30.13,10.0,ESE,4.6,-,N/A,,Clear,120,2013-01-21 02:15:00
8:35 PM,64.4,55.0,72,30.13,10.0,ESE,4.6,-,N/A,,Clear,120,2013-01-21 02:35:00
8:55 PM,64.0,55.4,73,30.14,10.0,SE,4.6,-,N/A,,Clear,130,2013-01-21 02:55:00
9:15 PM,63.1,55.4,76,30.14,10.0,ESE,3.5,-,N/A,,Clear,120,2013-01-21 03:15:00
9:35 PM,62.2,55.4,78,30.14,10.0,ESE,3.5,-,N/A,,Clear,120,2013-01-21 03:35:00
9:55 PM,61.7,55.4,80,30.14,10.0,Calm,Calm,-,N/A,,Clear,0,2013-01-21 03:55:00
10:15 PM,61.2,55.2,81,30.14,10.0,Calm,Calm,-,N/A,,Clear,0,2013-01-21 04:15:00
10:35 PM,60.3,55.0,83,30.14,10.0,Calm,Calm,-,N/A,,Clear,0,2013-01-21 04:35:00
10:55 PM,59.9,54.9,83,30.14,10.0,Calm,Calm,-,N/A,,Clear,0,2013-01-21 04:55:00
11:15 PM,59.5,54.9,84,30.15,10.0,Calm,Calm,-,N/A,,Clear,0,2013-01-21 05:15:00
11:35 PM,59.4,54.9,85,30.15,10.0,Calm,Calm,-,N/A,,Clear,0,2013-01-21 05:35:00
11:55 PM,58.8,54.5,86,30.15,10.0,Calm,Calm,-,N/A,,Clear,0,2013-01-21 05:55:00